Simultaneous Nadir Overpasses (SNOs) Predictions

Prediction of SNOs between GOES-16 and AQUA Satellite Orbit:

Table of predicted SNOs for the next 14.0 days since TLE Epoch: 3/25/2023
Index Date Time (GOES-16) GOES-16 Lat,Lon AQUA Lat,Lon Distance(km) Time Diff (sec)
1 03/26/2023 18:36:50 0.06, -75.20 0.52, -73.05 244.31 80
2 03/27/2023 07:00:22 -0.06, -75.20 0.57, -78.10 329.80 80
3 03/29/2023 06:44:01 -0.05, -75.21 -0.15, -74.77 50.57 80
4 03/31/2023 06:30:18 -0.04, -75.22 -0.83, -71.42 432.18 80
5 03/31/2023 18:53:59 0.04, -75.22 -0.23, -76.51 146.67 80
6 04/02/2023 18:37:35 0.03, -75.24 0.49, -73.16 236.63 80
7 04/03/2023 07:01:06 -0.03, -75.25 0.59, -78.21 336.31 80
8 04/05/2023 06:44:40 -0.03, -75.28 -0.10, -74.85 48.45 80
9 04/07/2023 06:30:54 -0.03, -75.31 -0.88, -71.50 434.09 80
10 04/07/2023 18:54:33 0.03, -75.32 -0.22, -76.59 143.83 80
